Home > Weather > Pensacola > Past weeks

Flag for USA Past Weather in Pensacola, Florida, USA — Yesterday and Last 2 Weeks

Now
84 °F

Clear.


Feels Like: 93 °F
Forecast: 78 / 92 °F
Wind: 6 mph from Southwest

Location: Pensacola Regional Airport

Current Time: Jul 28, 2016 at 11:07:40 PM

Latest Report: Jul 28, 2016 at 9:53 PM


Visibility: 10 mi

Pressure: 30.04 "Hg

Humidity: 77%

Dew Point: 76 °F

Location of PensacolaLocation

Past Weather in Pensacola — Graph

°F

Pensacola Temperature Yesterday

Maximum temperature yesterday: 90 °F (at 12:53 PM)
Minimum temperature yesterday: 79 °F (at 5:53 AM)
Average temperature yesterday: 85 °F

High & Low Weather Summary for the Past Weeks

 TemperatureHumidityPressure
High94 °F (Jul 20, 12:53 PM)94% (Jul 14, 12:53 AM)30.24 "Hg (Jul 14, 12:53 AM)
Low73 °F (Jul 15, 2:53 AM)43% (Jul 19, 12:53 PM)29.94 "Hg (Jul 26, 3:53 AM)
Average83 °F76%30.06 "Hg
* Reported Jul 13 9:53 PM — Jul 28 9:53 PM, Pensacola, Weather by CustomWeather, © 2016

Note: Actual official high and low records may vary slightly from our data, if they occured in-between our weather recording intervals... More about our weather records

Advertising

Pensacola Weather History for the Previous 24 Hours

Scroll right to see more
 ConditionsComfort  
Time TempWeatherWind HumidityBarometerVisibility
9:53 PM
Thu, Jul 28
84 °FClear.6 mph77%30.04 "Hg10 mi
8:53 PM84 °FClear.8 mph74%30.03 "Hg10 mi
7:53 PM86 °FClear.8 mph65%30.01 "Hg10 mi
6:53 PM88 °FSunny.8 mph55%29.99 "Hg10 mi
5:53 PM90 °FSunny.9 mph56%29.99 "Hg10 mi
4:53 PM91 °FSunny.14 mph54%30.00 "Hg10 mi
3:53 PM90 °FSunny.12 mph61%30.01 "Hg10 mi
2:53 PM91 °FPassing clouds.10 mph56%30.02 "Hg10 mi
1:53 PM90 °FPassing clouds.15 mph59%30.05 "Hg10 mi
12:53 PM90 °FPassing clouds.14 mph61%30.06 "Hg10 mi
11:53 AM89 °FPassing clouds.13 mph63%30.07 "Hg10 mi
10:53 AM89 °FPassing clouds.9 mph63%30.07 "Hg10 mi
9:53 AM88 °FPassing clouds.9 mph67%30.06 "Hg10 mi
8:53 AM86 °FSunny.6 mph70%30.06 "Hg10 mi
7:53 AM84 °FSunny.No wind77%30.06 "Hg10 mi
6:53 AM79 °FSunny.No wind88%30.04 "Hg10 mi
5:53 AM77 °FClear.No wind90%30.04 "Hg10 mi
4:53 AM77 °FClear.No wind90%30.05 "Hg10 mi
3:53 AM77 °FClear.No wind90%30.03 "Hg10 mi
2:53 AM78 °FClear.No wind87%30.03 "Hg10 mi
1:53 AM79 °FClear.No wind84%30.03 "Hg10 mi
12:53 AM79 °FClear.No wind84%30.03 "Hg10 mi
11:53 PM
Wed, Jul 27
80 °FClear.No wind81%30.03 "Hg10 mi
Weather by CustomWeather, © 2016

See weather overviewHow to use our weather pages